Flag for Bolivia Weather past 2 weeks in Santa Cruz, Bolivia

Now
68 °F

Passing clouds.


Feels Like: 68 °F
Forecast: 63 / 87 °F
Wind: 6 mph from South

Location: Viru-Viru

Current Time: Aug 28, 2015 at 4:05:20 AM

Latest Report: Aug 28, 2015 at 3:00 AM


Visibility: 4 mi

Pressure: 30.01 "Hg

Humidity: 94%

Dew point: 66 °F

Location of Santa CruzLocation

Historic Weather in Santa Cruz — Graph

°F

Santa Cruz temperature yesterday

Maximum temperature yesterday: 86 °F (at 4:00 PM)
Minimum temperature yesterday: 66 °F (at 6:00 AM)
Average temperature yesterday: 75 °F

Past Weeks' High & Low Weather Summary

 TemperatureHumidityPressure
High93 °F (Aug 22, 2:00 PM)100% (Aug 13, 6:00 AM)30.15 "Hg (Aug 13, 6:00 AM)
Low57 °F (Aug 18, 7:00 AM)31% (Aug 24, 2:00 PM)29.71 "Hg (Aug 22, 4:00 PM)
Average72 °F68%29.95 "Hg
* Reported Aug 13 3:00 AM — Aug 28 3:00 AM, Santa Cruz, Weather by CustomWeather, © 2015

Note: Actual official high and low records may vary slightly from our data, if they occured in-between our weather recording intervals... More about our weather records

Advertising

Santa Cruz weather history for previous 24 hours

 ConditionsComfort  
Time TempWeatherWind HumidityBarometerVisibility
3:00 AM
Fri, Aug 28
68 °FPassing clouds.6 mph94%30.01 "Hg4 mi
2:00 AM68 °FPassing clouds.5 mph100%30.04 "Hg5 mi
1:00 AM66 °FPassing clouds.3 mph100%30.04 "Hg5 mi
12:00 AM70 °FPassing clouds.2 mph94%30.04 "HgN/A
11:00 PM
Thu, Aug 27
70 °FPassing clouds.2 mph100%30.04 "HgN/A
10:00 PM72 °FPartly cloudy.3 mph100%30.04 "HgN/A
9:00 PM73 °FPassing clouds.8 mph94%30.01 "HgN/A
8:00 PM73 °FPassing clouds.5 mph78%29.98 "HgN/A
7:00 PM73 °FPassing clouds.5 mph78%29.98 "HgN/A
6:00 PM79 °FScattered clouds.5 mph65%29.98 "HgN/A
5:00 PM84 °FPassing clouds.6 mph51%29.95 "HgN/A
4:00 PM86 °FPassing clouds.9 mph49%29.95 "HgN/A
3:00 PM84 °FScattered clouds.12 mph51%29.98 "HgN/A
2:00 PM84 °FScattered clouds.14 mph48%29.98 "HgN/A
1:00 PM82 °FPartly sunny.12 mph55%30.01 "HgN/A
12:00 PM81 °FBroken clouds.12 mph62%30.04 "HgN/A
11:00 AM75 °FBroken clouds.5 mph74%30.07 "HgN/A
10:00 AM70 °FMostly cloudy.3 mph100%30.12 "HgN/A
9:00 AM68 °FMostly cloudy.3 mph100%30.09 "HgN/A
8:00 AM66 °FMostly cloudy.2 mph100%30.07 "HgN/A
7:00 AM66 °FLight rain. Mostly cloudy.2 mph100%30.07 "Hg4 mi
6:00 AM66 °FThunderstorms. Mostly cloudy.2 mph94%30.04 "Hg4 mi
5:00 AM68 °FThunderstorms. Partly cloudy.18 mph88%30.01 "Hg4 mi
4:00 AM70 °FThunderstorms. Partly cloudy.21 mph83%29.95 "Hg5 mi
Weather by CustomWeather, © 2015

See weather overviewHow to use our weather pages